TimeEST,TemperatureF,Dew PointF,Humidity,Sea Level PressureIn,VisibilityMPH,Wind Direction,Wind SpeedMPH,Gust SpeedMPH,PrecipitationIn,Events,Conditions,WindDirDegrees,DateUTC
12:13 AM,17.6,10.4,73,30.50,10.0,NW,9.2,-,N/A,,Scattered Clouds,310,2013-11-24 05:13:00
12:33 AM,17.6,8.6,68,30.50,10.0,NW,10.4,-,N/A,,Scattered Clouds,310,2013-11-24 05:33:00
12:53 AM,17.6,8.6,68,30.50,10.0,NW,9.2,-,N/A,,Scattered Clouds,320,2013-11-24 05:53:00
1:13 AM,17.6,8.6,68,30.50,10.0,NW,6.9,-,N/A,,Scattered Clouds,310,2013-11-24 06:13:00
1:33 AM,17.6,10.4,73,30.50,10.0,NW,6.9,-,N/A,,Scattered Clouds,310,2013-11-24 06:33:00
1:53 AM,17.6,8.6,68,30.50,10.0,NW,10.4,-,N/A,,Mostly Cloudy,320,2013-11-24 06:53:00
2:13 AM,17.6,8.6,68,30.51,10.0,NW,9.2,17.3,N/A,,Mostly Cloudy,320,2013-11-24 07:13:00
2:33 AM,17.6,8.6,68,30.52,10.0,WNW,8.1,-,N/A,,Scattered Clouds,300,2013-11-24 07:33:00
2:53 AM,17.6,8.6,68,30.52,10.0,NW,10.4,17.3,N/A,,Clear,310,2013-11-24 07:53:00
3:14 AM,17.6,8.6,68,30.52,10.0,NW,9.2,-,N/A,,Clear,310,2013-11-24 08:14:00
3:34 AM,15.8,8.6,73,30.52,10.0,NW,8.1,-,N/A,,Clear,310,2013-11-24 08:34:00
3:54 AM,15.8,8.6,73,30.52,10.0,WNW,6.9,-,N/A,,Clear,290,2013-11-24 08:54:00
4:14 AM,15.8,10.4,79,30.51,10.0,WNW,9.2,-,N/A,,Clear,300,2013-11-24 09:14:00
4:34 AM,15.8,10.4,79,30.52,10.0,WNW,8.1,-,N/A,,Clear,300,2013-11-24 09:34:00
4:54 AM,15.8,8.6,73,30.52,10.0,NW,8.1,-,N/A,,Clear,310,2013-11-24 09:54:00
5:14 AM,15.8,8.6,73,30.53,10.0,WNW,6.9,-,N/A,,Clear,290,2013-11-24 10:14:00
5:35 AM,15.8,8.6,73,30.53,10.0,WNW,8.1,-,N/A,,Clear,300,2013-11-24 10:35:00
5:55 AM,15.8,8.6,73,30.53,10.0,WNW,5.8,-,N/A,,Clear,300,2013-11-24 10:55:00
6:15 AM,15.8,8.6,73,30.53,10.0,WNW,5.8,-,N/A,,Clear,300,2013-11-24 11:15:00
6:35 AM,14.0,8.6,79,30.54,10.0,WNW,4.6,-,N/A,,Clear,290,2013-11-24 11:35:00
6:55 AM,14.0,8.6,79,30.54,10.0,West,4.6,-,N/A,,Clear,280,2013-11-24 11:55:00
7:15 AM,14.0,8.6,79,30.54,10.0,West,3.5,-,N/A,,Clear,280,2013-11-24 12:15:00
7:35 AM,12.2,8.6,85,30.55,10.0,West,4.6,-,N/A,,Clear,260,2013-11-24 12:35:00
7:55 AM,14.0,8.6,79,30.55,10.0,West,5.8,-,N/A,,Clear,270,2013-11-24 12:55:00
8:15 AM,15.8,8.6,73,30.56,10.0,West,5.8,-,N/A,,Clear,270,2013-11-24 13:15:00
8:35 AM,17.6,10.4,73,30.57,10.0,West,9.2,-,N/A,,Clear,280,2013-11-24 13:35:00
8:55 AM,17.6,10.4,73,30.57,10.0,WNW,10.4,-,N/A,,Clear,290,2013-11-24 13:55:00
9:15 AM,19.4,10.4,68,30.58,10.0,West,10.4,-,N/A,,Clear,280,2013-11-24 14:15:00
9:35 AM,19.4,10.4,68,30.58,10.0,WNW,12.7,-,N/A,,Clear,290,2013-11-24 14:35:00
9:56 AM,21.2,10.4,63,30.58,10.0,WNW,12.7,19.6,N/A,,Clear,300,2013-11-24 14:56:00
10:16 AM,21.2,10.4,63,30.58,10.0,NW,11.5,16.1,N/A,,Clear,320,2013-11-24 15:16:00
10:36 AM,21.2,10.4,63,30.58,10.0,WNW,12.7,17.3,N/A,,Clear,300,2013-11-24 15:36:00
10:56 AM,21.2,8.6,58,30.58,10.0,NW,12.7,16.1,N/A,,Scattered Clouds,320,2013-11-24 15:56:00
11:16 AM,23.0,8.6,54,30.57,10.0,NW,11.5,-,N/A,,Scattered Clouds,310,2013-11-24 16:16:00
11:36 AM,23.0,8.6,54,30.57,10.0,NW,13.8,17.3,N/A,,Scattered Clouds,320,2013-11-24 16:36:00
11:56 AM,23.0,8.6,54,30.56,10.0,WNW,12.7,18.4,N/A,,Mostly Cloudy,290,2013-11-24 16:56:00
12:16 PM,23.0,6.8,50,30.55,10.0,NW,12.7,16.1,N/A,,Mostly Cloudy,320,2013-11-24 17:16:00
12:36 PM,24.8,8.6,50,30.54,10.0,WNW,11.5,-,N/A,,Mostly Cloudy,300,2013-11-24 17:36:00
12:56 PM,24.8,6.8,46,30.53,10.0,WNW,9.2,-,N/A,,Mostly Cloudy,300,2013-11-24 17:56:00
1:12 PM,26.6,8.6,47,30.53,10.0,WNW,16.1,19.6,N/A,,Mostly Cloudy,290,2013-11-24 18:12:00
1:32 PM,24.8,8.6,50,30.53,10.0,WNW,12.7,17.3,N/A,,Mostly Cloudy,300,2013-11-24 18:32:00
1:52 PM,24.8,6.8,46,30.53,10.0,WNW,11.5,17.3,N/A,,Mostly Cloudy,300,2013-11-24 18:52:00
2:12 PM,26.6,8.6,47,30.52,10.0,NW,10.4,-,N/A,,Overcast,310,2013-11-24 19:12:00
2:32 PM,24.8,8.6,50,30.52,10.0,WNW,12.7,-,N/A,,Mostly Cloudy,290,2013-11-24 19:32:00
2:52 PM,24.8,6.8,46,30.51,10.0,WNW,15.0,-,N/A,,Scattered Clouds,290,2013-11-24 19:52:00
3:12 PM,26.6,8.6,47,30.51,10.0,West,13.8,21.9,N/A,,Scattered Clouds,280,2013-11-24 20:12:00
3:33 PM,24.8,8.6,50,30.51,10.0,West,13.8,17.3,N/A,,Mostly Cloudy,270,2013-11-24 20:33:00
3:53 PM,26.6,8.6,47,30.51,10.0,West,12.7,18.4,N/A,,Scattered Clouds,270,2013-11-24 20:53:00
4:13 PM,24.8,8.6,50,30.52,10.0,WNW,12.7,-,N/A,,Clear,290,2013-11-24 21:13:00
4:33 PM,24.8,8.6,50,30.52,10.0,NW,9.2,-,N/A,,Scattered Clouds,310,2013-11-24 21:33:00
4:53 PM,24.8,8.6,50,30.51,10.0,WNW,8.1,-,N/A,,Scattered Clouds,290,2013-11-24 21:53:00
5:13 PM,23.0,10.4,59,30.51,10.0,West,9.2,-,N/A,,Clear,280,2013-11-24 22:13:00
5:33 PM,23.0,10.4,59,30.51,10.0,West,6.9,-,N/A,,Clear,280,2013-11-24 22:33:00
5:53 PM,21.2,10.4,63,30.51,10.0,West,6.9,-,N/A,,Clear,270,2013-11-24 22:53:00
6:13 PM,21.2,12.2,68,30.51,10.0,West,8.1,-,N/A,,Clear,270,2013-11-24 23:13:00
6:33 PM,21.2,12.2,68,30.50,10.0,West,5.8,-,N/A,,Clear,280,2013-11-24 23:33:00
6:53 PM,21.2,14.0,74,30.49,10.0,West,3.5,-,N/A,,Clear,260,2013-11-24 23:53:00
7:13 PM,21.2,14.0,74,30.49,10.0,Calm,Calm,-,N/A,,Clear,0,2013-11-25 00:13:00
7:33 PM,19.4,14.0,80,30.48,10.0,WSW,3.5,-,N/A,,Clear,250,2013-11-25 00:33:00
7:53 PM,19.4,14.0,80,30.48,10.0,SW,4.6,-,N/A,,Clear,220,2013-11-25 00:53:00
8:14 PM,19.4,14.0,80,30.47,10.0,SSW,3.5,-,N/A,,Clear,210,2013-11-25 01:14:00
8:34 PM,19.4,14.0,80,30.47,10.0,SSW,3.5,-,N/A,,Clear,210,2013-11-25 01:34:00
8:54 PM,17.6,12.2,79,30.46,10.0,SSW,4.6,-,N/A,,Clear,200,2013-11-25 01:54:00
9:14 PM,19.4,14.0,80,30.46,10.0,SW,3.5,-,N/A,,Clear,220,2013-11-25 02:14:00
9:34 PM,19.4,14.0,80,30.46,10.0,SSW,5.8,-,N/A,,Clear,210,2013-11-25 02:34:00
9:54 PM,19.4,14.0,80,30.45,10.0,SSW,5.8,-,N/A,,Clear,210,2013-11-25 02:54:00
10:14 PM,19.4,15.8,86,30.44,10.0,SW,5.8,-,N/A,,Clear,220,2013-11-25 03:14:00
10:34 PM,19.4,15.8,86,30.44,10.0,SSW,5.8,-,N/A,,Clear,210,2013-11-25 03:34:00
10:55 PM,19.4,15.8,86,30.43,10.0,SW,6.9,-,N/A,,Clear,220,2013-11-25 03:55:00
11:15 PM,19.4,15.8,86,30.44,10.0,SW,6.9,-,N/A,,Clear,230,2013-11-25 04:15:00
11:35 PM,19.4,15.8,86,30.43,10.0,SW,5.8,-,N/A,,Clear,220,2013-11-25 04:35:00
11:55 PM,19.4,15.8,86,30.43,10.0,SW,5.8,-,N/A,,Clear,220,2013-11-25 04:55:00